Simultaneous Nadir Overpasses (SNOs) Predictions

Prediction of SNOs between GOES-17 and NOAA-19 Satellite Orbit:

Table of predicted SNOs for the next 14.0 days since TLE Epoch: 1/10/2025
Index Date Time (GOES-17) GOES-17 Lat,Lon NOAA-19 Lat,Lon Distance(km) Time Diff (sec)
1 01/11/2025 04:19:34 0.00,-104.66 0.77,-101.37 375.98 80
2 01/12/2025 16:50:49 0.00,-104.69 0.96,-108.88 478.11 80
3 01/13/2025 16:38:18 0.01,-104.69 0.29,-105.83 130.48 80
4 01/14/2025 16:28:27 0.01,-104.70 -0.45,-102.80 217.31 80
5 01/17/2025 04:47:28 -0.02,-104.70 -0.62,-107.33 300.01 80
6 01/18/2025 04:32:17 -0.02,-104.70 0.07,-104.28 47.95 80
7 01/19/2025 04:19:45 -0.03,-104.71 0.77,-101.24 396.01 80
8 01/20/2025 16:51:02 0.02,-104.73 0.95,-108.75 458.70 80
9 01/21/2025 16:38:30 0.03,-104.74 0.26,-105.71 110.48 80
10 01/22/2025 16:28:39 0.03,-104.75 -0.43,-102.67 237.67 80
